Location: Foligno
(42.9600°N, 12.7050°E)
Time: 16:37:13
(UTC+02:00)

ISS - Pass Details

Date: 20 July 2018
Orbit: 402 x 408 km, 51.6° (Epoch: 20 July)

Event Time Altitude Azimuth Distance (km) Brightness Sun altitude
Rises 23:44:48 0° 269° (W) 2,318 0.3 -23.2°
Reaches altitude 10° 23:47:06 10° 283° (WNW) 1,461 -0.6 -23.3°
Maximum altitude 23:49:54 26° 342° (NNW) 846 -1.5 -23.5°
Drops below altitude 10° 23:52:44 10° 41° (NE) 1,467 -0.7 -23.7°
Sets 23:55:03 0° 55° (NE) 2,331 0.2 -23.9°
